Orbital Elements at Epoch 2459200.5 (2020-Dec-17.0) TDB
Reference: JPL 18 (heliocentric ecliptic J2000)
Element | Value | Uncertainty (1-sigma) | Units |
e | .1408170943212383 | 4.3383e-08 | |
a | 2.266147292178311 | 7.1606e-09 | au |
q | 1.947035015189819 | 9.9333e-08 | au |
i | 6.949514988104085 | 3.8892e-06 | deg |
node | 140.7173622884999 | 4.0847e-05 | deg |
peri | 272.8951966506579 | 4.3825e-05 | deg |
M | 100.0721230038586 | 1.4706e-05 | deg |
tp | 2458854.129225522496 (2020-Jan-05.62922552) | 5.0847e-05 | TDB |
period | 1246.036109447717 3.41 | 5.9059e-06 1.617e-08 | d yr |
n | .2889161857111536 | 1.3694e-09 | deg/d |
Q | 2.585259569166803 | 8.169e-09 | au |
|
| | Orbit Determination Parameters
Additional Information
|